ECMWFNIL_prec_pwat_132.txt.gz
Precipitable_Water
1.57 1.56 1.57 1.55 1.56 1.58 1.58 1.56 1.56 1.53 1.52 1.53 1.48 1.46 1.49 1.52 1.55 1.50 1.50 1.51 1.52 1.55 1.59 1.65 1.67 1.66 1.68 1.71 1.67 1.59 1.53 1.48 1.48 1.47 1.43 1.38 1.39 1.39 1.37 1.40 1.42 1.43
1.60 1.59 1.58 1.57 1.58 1.63 1.61 1.59 1.58 1.55 1.53 1.53 1.53 1.56 1.56 1.58 1.57 1.52 1.50 1.50 1.54 1.56 1.60 1.60 1.62 1.65 1.67 1.67 1.66 1.62 1.57 1.55 1.50 1.57 1.49 1.43 1.41 1.42 1.41 1.41 1.43 1.48
1.61 1.60 1.57 1.54 1.54 1.57 1.60 1.62 1.59 1.58 1.58 1.55 1.56 1.58 1.59 1.61 1.57 1.55 1.57 1.52 1.49 1.52 1.58 1.59 1.58 1.59 1.61 1.61 1.64 1.62 1.59 1.58 1.50 1.58 1.55 1.49 1.49 1.47 1.55 1.55 1.49 1.49
1.64 1.61 1.57 1.59 1.60 1.58 1.61 1.60 1.60 1.60 1.60 1.59 1.55 1.60 1.64 1.64 1.60 1.58 1.59 1.57 1.50 1.47 1.51 1.54 1.53 1.54 1.53 1.54 1.55 1.52 1.53 1.52 1.53 1.59 1.54 1.54 1.53 1.52 1.52 1.56 1.60 1.59
1.63 1.63 1.62 1.59 1.63 1.65 1.65 1.63 1.59 1.59 1.60 1.61 1.64 1.67 1.66 1.67 1.65 1.62 1.61 1.60 1.55 1.47 1.46 1.48 1.50 1.50 1.49 1.47 1.50 1.46 1.46 1.46 1.52 1.54 1.51 1.48 1.51 1.50 1.48 1.49 1.54 1.57
1.67 1.62 1.60 1.59 1.61 1.63 1.63 1.67 1.60 1.61 1.64 1.64 1.68 1.75 1.71 1.71 1.67 1.64 1.64 1.62 1.61 1.56 1.50 1.47 1.47 1.47 1.45 1.42 1.46 1.48 1.50 1.46 1.50 1.52 1.48 1.43 1.44 1.47 1.44 1.48 1.50 1.49
1.62 1.58 1.54 1.59 1.60 1.62 1.64 1.68 1.66 1.68 1.68 1.69 1.74 1.74 1.75 1.71 1.68 1.65 1.66 1.65 1.62 1.60 1.57 1.52 1.49 1.46 1.45 1.43 1.40 1.41 1.46 1.49 1.52 1.55 1.53 1.54 1.52 1.48 1.49 1.47 1.46 1.46
1.60 1.60 1.60 1.61 1.59 1.62 1.62 1.67 1.68 1.69 1.71 1.72 1.68 1.73 1.73 1.66 1.69 1.73 1.70 1.66 1.61 1.59 1.61 1.60 1.58 1.54 1.51 1.49 1.45 1.43 1.45 1.51 1.49 1.51 1.52 1.52 1.51 1.45 1.47 1.51 1.50 1.47
1.61 1.59 1.61 1.63 1.61 1.65 1.65 1.67 1.71 1.71 1.73 1.68 1.65 1.70 1.74 1.69 1.69 1.73 1.74 1.69 1.62 1.60 1.60 1.61 1.64 1.64 1.59 1.56 1.56 1.56 1.54 1.55 1.52 1.51 1.51 1.51 1.50 1.51 1.50 1.50 1.45 1.42
1.55 1.59 1.58 1.60 1.60 1.66 1.67 1.67 1.71 1.73 1.74 1.67 1.66 1.67 1.69 1.73 1.73 1.68 1.68 1.67 1.64 1.60 1.56 1.56 1.64 1.70 1.68 1.65 1.62 1.63 1.63 1.60 1.58 1.56 1.57 1.62 1.62 1.60 1.57 1.54 1.50 1.46
1.49 1.52 1.52 1.55 1.57 1.62 1.66 1.69 1.69 1.72 1.74 1.70 1.69 1.66 1.67 1.69 1.70 1.71 1.66 1.64 1.62 1.61 1.58 1.59 1.65 1.71 1.72 1.69 1.66 1.67 1.68 1.66 1.64 1.61 1.59 1.63 1.67 1.67 1.65 1.59 1.52 1.47
1.46 1.48 1.46 1.51 1.57 1.60 1.63 1.67 1.69 1.71 1.73 1.75 1.73 1.67 1.67 1.67 1.66 1.68 1.65 1.62 1.64 1.65 1.63 1.64 1.68 1.69 1.70 1.70 1.67 1.66 1.65 1.68 1.69 1.66 1.65 1.63 1.63 1.62 1.59 1.55 1.46 1.37
1.41 1.43 1.45 1.46 1.52 1.59 1.62 1.63 1.66 1.71 1.73 1.70 1.72 1.70 1.67 1.67 1.69 1.68 1.69 1.65 1.64 1.65 1.62 1.60 1.62 1.65 1.65 1.66 1.67 1.65 1.62 1.62 1.64 1.67 1.68 1.74 1.74 1.71 1.69 1.64 1.57 1.52
1.42 1.44 1.44 1.46 1.49 1.53 1.59 1.62 1.64 1.69 1.72 1.73 1.75 1.72 1.70 1.71 1.73 1.73 1.74 1.72 1.71 1.69 1.66 1.61 1.56 1.56 1.58 1.62 1.64 1.64 1.61 1.59 1.63 1.66 1.72 1.75 1.74 1.77 1.74 1.69 1.63 1.60
1.46 1.47 1.47 1.48 1.49 1.48 1.51 1.57 1.61 1.64 1.67 1.72 1.75 1.75 1.76 1.75 1.76 1.78 1.78 1.78 1.79 1.80 1.77 1.75 1.69 1.64 1.63 1.63 1.62 1.61 1.62 1.60 1.62 1.65 1.68 1.70 1.73 1.73 1.72 1.69 1.64 1.59
1.48 1.47 1.46 1.48 1.48 1.48 1.47 1.48 1.54 1.59 1.60 1.61 1.63 1.66 1.71 1.74 1.74 1.76 1.79 1.80 1.81 1.83 1.83 1.82 1.81 1.83 1.81 1.78 1.76 1.72 1.69 1.66 1.66 1.66 1.66 1.68 1.70 1.67 1.66 1.67 1.66 1.63
1.50 1.47 1.47 1.45 1.47 1.49 1.50 1.46 1.45 1.48 1.52 1.57 1.59 1.61 1.62 1.65 1.66 1.68 1.73 1.76 1.79 1.81 1.82 1.88 1.90 1.90 1.88 1.86 1.84 1.83 1.82 1.77 1.72 1.70 1.72 1.72 1.70 1.67 1.64 1.64 1.63 1.63
1.49 1.49 1.47 1.47 1.50 1.49 1.48 1.48 1.46 1.44 1.43 1.46 1.51 1.53 1.57 1.61 1.61 1.60 1.62 1.67 1.73 1.76 1.79 1.85 1.87 1.88 1.87 1.87 1.87 1.87 1.88 1.86 1.82 1.74 1.71 1.69 1.68 1.65 1.60 1.55 1.53 1.53
1.52 1.50 1.50 1.49 1.49 1.50 1.52 1.51 1.44 1.40 1.38 1.37 1.40 1.48 1.53 1.54 1.56 1.57 1.55 1.57 1.59 1.59 1.63 1.73 1.79 1.80 1.76 1.74 1.73 1.74 1.78 1.81 1.80 1.75 1.68 1.66 1.66 1.60 1.54 1.50 1.48 1.49
1.64 1.61 1.57 1.52 1.51 1.50 1.49 1.48 1.46 1.40 1.38 1.38 1.41 1.48 1.52 1.53 1.54 1.54 1.56 1.54 1.50 1.46 1.45 1.49 1.53 1.59 1.63 1.66 1.66 1.65 1.66 1.69 1.69 1.68 1.67 1.65 1.63 1.62 1.59 1.55 1.52 1.49
1.71 1.58 1.58 1.70 1.71 1.67 1.58 1.51 1.53 1.49 1.44 1.45 1.44 1.43 1.44 1.45 1.46 1.44 1.47 1.48 1.47 1.46 1.43 1.43 1.45 1.48 1.48 1.49 1.50 1.52 1.55 1.58 1.59 1.59 1.58 1.59 1.61 1.63 1.61 1.59 1.57 1.55
1.90 1.80 1.69 1.75 1.88 1.74 1.61 1.68 1.70 1.65 1.55 1.55 1.54 1.54 1.55 1.56 1.55 1.51 1.42 1.37 1.38 1.37 1.35 1.33 1.38 1.44 1.47 1.47 1.47 1.47 1.49 1.51 1.51 1.50 1.50 1.51 1.54 1.57 1.59 1.60 1.59 1.54
1.94 1.92 1.88 1.80 1.74 1.74 1.85 1.83 1.75 1.72 1.73 1.73 1.65 1.65 1.68 1.70 1.71 1.70 1.66 1.58 1.52 1.49 1.44 1.42 1.43 1.46 1.50 1.54 1.57 1.60 1.61 1.58 1.55 1.52 1.50 1.50 1.54 1.59 1.62 1.64 1.64 1.63
1.97 1.96 1.91 1.86 1.83 1.74 1.72 1.82 1.93 1.91 1.85 1.87 1.77 1.74 1.73 1.77 1.82 1.83 1.86 1.83 1.76 1.71 1.71 1.68 1.68 1.68 1.65 1.64 1.65 1.69 1.72 1.70 1.70 1.66 1.62 1.60 1.62 1.69 1.73 1.77 1.82 1.86
2.01 2.00 1.98 1.94 1.93 1.91 1.83 1.79 1.88 1.99 2.01 1.99 1.91 1.86 1.84 1.87 1.87 1.86 1.89 1.92 1.89 1.86 1.87 1.84 1.86 1.91 1.93 1.91 1.88 1.87 1.87 1.87 1.85 1.83 1.78 1.79 1.80 1.82 1.89 1.94 1.98 1.99
2.04 2.02 2.01 2.00 2.00 2.01 2.02 1.99 2.00 2.07 2.06 2.04 2.03 1.98 1.91 1.89 1.89 1.87 1.85 1.89 1.92 1.91 1.90 1.91 1.92 1.94 1.97 2.00 2.03 2.04 2.04 2.00 1.98 1.93 1.90 1.96 2.02 2.02 1.99 2.02 2.06 2.06

ECMWFNIL_prec_pwat_135.txt.gz
Precipitable_Water
1.48 1.48 1.47 1.48 1.50 1.52 1.50 1.45 1.45 1.43 1.43 1.46 1.43 1.45 1.47 1.50 1.54 1.54 1.55 1.57 1.59 1.60 1.63 1.68 1.71 1.67 1.66 1.66 1.65 1.57 1.50 1.47 1.44 1.46 1.44 1.44 1.43 1.44 1.47 1.48 1.48 1.51
1.50 1.50 1.51 1.52 1.52 1.56 1.57 1.55 1.53 1.49 1.47 1.50 1.49 1.50 1.52 1.52 1.54 1.54 1.53 1.52 1.56 1.56 1.61 1.66 1.70 1.70 1.69 1.67 1.67 1.61 1.55 1.52 1.44 1.50 1.43 1.38 1.35 1.37 1.40 1.42 1.41 1.49
1.55 1.54 1.53 1.50 1.50 1.53 1.56 1.59 1.58 1.57 1.55 1.57 1.57 1.56 1.54 1.54 1.52 1.54 1.54 1.52 1.52 1.55 1.60 1.64 1.68 1.69 1.70 1.69 1.68 1.65 1.61 1.56 1.50 1.52 1.49 1.43 1.42 1.37 1.38 1.41 1.40 1.41
1.56 1.57 1.56 1.55 1.56 1.56 1.59 1.59 1.59 1.59 1.60 1.58 1.56 1.59 1.60 1.59 1.58 1.57 1.53 1.53 1.50 1.52 1.57 1.61 1.62 1.65 1.68 1.68 1.66 1.63 1.63 1.62 1.61 1.59 1.53 1.52 1.50 1.49 1.47 1.49 1.49 1.48
1.52 1.56 1.59 1.60 1.60 1.62 1.63 1.59 1.58 1.59 1.58 1.59 1.60 1.61 1.61 1.60 1.60 1.58 1.55 1.54 1.53 1.51 1.53 1.54 1.57 1.58 1.62 1.61 1.60 1.56 1.57 1.56 1.58 1.57 1.52 1.50 1.53 1.51 1.50 1.48 1.49 1.51
1.56 1.57 1.60 1.61 1.62 1.62 1.60 1.59 1.62 1.62 1.60 1.59 1.60 1.66 1.64 1.64 1.61 1.61 1.59 1.55 1.56 1.53 1.50 1.50 1.50 1.52 1.53 1.53 1.52 1.49 1.49 1.47 1.51 1.53 1.50 1.50 1.53 1.57 1.55 1.52 1.50 1.48
1.55 1.59 1.60 1.63 1.63 1.64 1.61 1.61 1.65 1.67 1.66 1.65 1.68 1.67 1.69 1.65 1.63 1.64 1.64 1.62 1.61 1.59 1.53 1.49 1.46 1.45 1.49 1.50 1.45 1.41 1.44 1.46 1.51 1.53 1.49 1.51 1.54 1.52 1.55 1.51 1.47 1.45
1.58 1.63 1.64 1.65 1.60 1.60 1.61 1.64 1.66 1.68 1.70 1.70 1.65 1.68 1.74 1.74 1.71 1.69 1.68 1.67 1.64 1.61 1.59 1.55 1.51 1.48 1.48 1.47 1.41 1.36 1.37 1.44 1.46 1.49 1.50 1.51 1.57 1.55 1.56 1.53 1.49 1.43
1.62 1.62 1.63 1.59 1.56 1.56 1.58 1.62 1.66 1.70 1.73 1.68 1.67 1.68 1.75 1.77 1.76 1.74 1.70 1.67 1.64 1.61 1.60 1.59 1.57 1.53 1.51 1.48 1.43 1.39 1.36 1.38 1.44 1.48 1.47 1.47 1.51 1.53 1.52 1.55 1.48 1.44
1.58 1.61 1.60 1.58 1.52 1.53 1.56 1.61 1.65 1.70 1.74 1.69 1.70 1.72 1.71 1.76 1.76 1.73 1.72 1.71 1.65 1.62 1.59 1.59 1.59 1.57 1.55 1.54 1.49 1.45 1.44 1.45 1.50 1.52 1.50 1.48 1.48 1.50 1.53 1.53 1.48 1.42
1.54 1.58 1.57 1.56 1.53 1.55 1.56 1.62 1.66 1.71 1.75 1.71 1.69 1.68 1.69 1.71 1.73 1.74 1.70 1.69 1.66 1.62 1.59 1.58 1.57 1.58 1.59 1.61 1.59 1.59 1.57 1.57 1.58 1.58 1.55 1.53 1.51 1.54 1.59 1.57 1.53 1.47
1.43 1.51 1.53 1.55 1.53 1.54 1.57 1.63 1.68 1.71 1.73 1.73 1.71 1.67 1.67 1.67 1.68 1.70 1.68 1.65 1.65 1.64 1.63 1.61 1.59 1.58 1.61 1.65 1.67 1.67 1.64 1.63 1.64 1.62 1.60 1.59 1.59 1.60 1.61 1.61 1.55 1.49
1.33 1.38 1.45 1.50 1.53 1.55 1.58 1.61 1.66 1.71 1.72 1.70 1.74 1.71 1.67 1.66 1.66 1.66 1.69 1.67 1.65 1.65 1.64 1.64 1.63 1.63 1.64 1.66 1.68 1.68 1.66 1.63 1.62 1.62 1.62 1.61 1.60 1.60 1.61 1.62 1.59 1.54
1.31 1.36 1.40 1.44 1.49 1.54 1.56 1.58 1.61 1.67 1.69 1.72 1.75 1.73 1.72 1.70 1.69 1.67 1.68 1.69 1.67 1.64 1.66 1.67 1.66 1.65 1.66 1.66 1.66 1.65 1.63 1.60 1.58 1.57 1.59 1.61 1.63 1.65 1.67 1.68 1.66 1.62
1.32 1.35 1.39 1.41 1.44 1.47 1.50 1.54 1.59 1.63 1.67 1.69 1.72 1.74 1.75 1.74 1.74 1.73 1.71 1.69 1.69 1.68 1.66 1.67 1.64 1.61 1.61 1.59 1.58 1.58 1.59 1.56 1.56 1.55 1.54 1.56 1.60 1.65 1.70 1.73 1.72 1.68
1.34 1.35 1.36 1.39 1.42 1.42 1.43 1.47 1.52 1.58 1.61 1.63 1.69 1.73 1.75 1.76 1.76 1.75 1.73 1.72 1.72 1.73 1.73 1.72 1.70 1.70 1.68 1.66 1.64 1.61 1.61 1.60 1.59 1.58 1.57 1.58 1.60 1.63 1.66 1.69 1.70 1.70
1.41 1.38 1.38 1.38 1.42 1.43 1.44 1.43 1.43 1.48 1.53 1.57 1.62 1.67 1.70 1.74 1.76 1.76 1.75 1.76 1.75 1.76 1.78 1.79 1.79 1.81 1.81 1.78 1.76 1.75 1.75 1.72 1.67 1.64 1.64 1.63 1.61 1.60 1.60 1.65 1.68 1.68
1.47 1.45 1.41 1.41 1.43 1.42 1.44 1.46 1.46 1.46 1.47 1.50 1.55 1.58 1.62 1.66 1.66 1.68 1.74 1.77 1.78 1.79 1.79 1.81 1.83 1.86 1.86 1.85 1.85 1.84 1.84 1.83 1.83 1.78 1.75 1.72 1.70 1.68 1.69 1.69 1.65 1.65
1.55 1.51 1.45 1.42 1.43 1.44 1.45 1.46 1.45 1.44 1.44 1.44 1.44 1.51 1.57 1.56 1.58 1.60 1.63 1.70 1.72 1.74 1.77 1.81 1.82 1.86 1.88 1.88 1.88 1.88 1.89 1.90 1.89 1.89 1.83 1.80 1.77 1.75 1.74 1.73 1.69 1.65
1.61 1.59 1.54 1.50 1.51 1.51 1.49 1.46 1.43 1.41 1.42 1.44 1.44 1.44 1.42 1.44 1.49 1.52 1.56 1.57 1.60 1.62 1.65 1.70 1.74 1.79 1.83 1.86 1.88 1.89 1.88 1.86 1.84 1.83 1.83 1.81 1.78 1.76 1.73 1.69 1.66 1.61
1.67 1.62 1.58 1.57 1.56 1.55 1.51 1.47 1.45 1.45 1.44 1.44 1.42 1.39 1.38 1.36 1.38 1.41 1.47 1.52 1.57 1.61 1.60 1.59 1.61 1.64 1.66 1.68 1.72 1.74 1.74 1.75 1.73 1.72 1.70 1.70 1.72 1.72 1.71 1.70 1.67 1.64
1.86 1.74 1.65 1.62 1.59 1.57 1.54 1.53 1.51 1.46 1.42 1.45 1.44 1.44 1.45 1.44 1.43 1.43 1.43 1.48 1.55 1.57 1.56 1.54 1.58 1.60 1.58 1.57 1.57 1.58 1.60 1.62 1.62 1.59 1.56 1.55 1.57 1.61 1.64 1.65 1.64 1.59
1.90 1.90 1.83 1.73 1.69 1.62 1.55 1.55 1.59 1.61 1.57 1.55 1.46 1.46 1.45 1.46 1.45 1.43 1.43 1.43 1.48 1.51 1.50 1.49 1.53 1.58 1.58 1.57 1.57 1.58 1.59 1.57 1.54 1.49 1.48 1.48 1.51 1.58 1.62 1.62 1.59 1.57
1.99 1.99 1.96 1.93 1.85 1.76 1.75 1.74 1.75 1.78 1.79 1.82 1.70 1.62 1.57 1.57 1.59 1.58 1.53 1.49 1.46 1.46 1.49 1.47 1.50 1.58 1.59 1.58 1.57 1.56 1.54 1.53 1.55 1.54 1.54 1.55 1.57 1.64 1.69 1.72 1.75 1.76
1.95 2.03 2.05 2.00 1.92 1.90 1.87 1.84 1.87 1.92 1.97 1.98 1.94 1.86 1.81 1.78 1.75 1.86 1.88 1.74 1.64 1.64 1.66 1.63 1.62 1.65 1.69 1.70 1.69 1.68 1.68 1.67 1.64 1.60 1.58 1.63 1.69 1.74 1.82 1.85 1.88 1.90
2.03 2.01 2.06 2.04 1.98 1.98 1.95 1.91 1.97 1.97 1.98 1.97 1.95 1.97 1.94 1.94 1.91 1.85 1.86 1.93 1.89 1.79 1.80 1.82 1.81 1.81 1.82 1.82 1.83 1.85 1.88 1.91 1.92 1.85 1.78 1.79 1.83 1.82 1.80 1.85 1.88 1.89

ECMWFNIL_prec_pwat_138.txt.gz
Precipitable_Water
1.54 1.55 1.53 1.50 1.48 1.46 1.43 1.40 1.40 1.37 1.36 1.39 1.34 1.34 1.36 1.41 1.48 1.50 1.54 1.58 1.60 1.59 1.59 1.60 1.65 1.67 1.66 1.64 1.63 1.62 1.59 1.53 1.52 1.54 1.54 1.57 1.56 1.56 1.55 1.57 1.58 1.57
1.49 1.53 1.55 1.53 1.50 1.51 1.50 1.49 1.46 1.43 1.40 1.43 1.43 1.44 1.46 1.48 1.50 1.52 1.53 1.54 1.57 1.58 1.59 1.58 1.60 1.64 1.64 1.62 1.61 1.58 1.56 1.54 1.47 1.54 1.48 1.47 1.49 1.50 1.50 1.52 1.53 1.57
1.47 1.48 1.50 1.48 1.47 1.49 1.51 1.54 1.53 1.51 1.47 1.47 1.50 1.50 1.50 1.52 1.50 1.51 1.52 1.53 1.53 1.54 1.55 1.57 1.57 1.61 1.64 1.65 1.64 1.61 1.57 1.55 1.52 1.55 1.50 1.46 1.50 1.46 1.44 1.44 1.45 1.48
1.50 1.51 1.50 1.50 1.50 1.50 1.55 1.55 1.55 1.56 1.55 1.51 1.50 1.53 1.54 1.54 1.53 1.50 1.48 1.50 1.50 1.51 1.53 1.55 1.56 1.62 1.65 1.66 1.66 1.63 1.63 1.62 1.61 1.61 1.55 1.55 1.54 1.51 1.48 1.46 1.44 1.43
1.53 1.54 1.55 1.54 1.55 1.57 1.58 1.55 1.55 1.56 1.55 1.54 1.57 1.58 1.57 1.56 1.54 1.51 1.49 1.48 1.49 1.47 1.49 1.51 1.55 1.58 1.63 1.64 1.65 1.59 1.60 1.58 1.61 1.61 1.56 1.51 1.54 1.53 1.53 1.51 1.47 1.44
1.55 1.57 1.59 1.58 1.58 1.57 1.56 1.55 1.57 1.58 1.56 1.54 1.55 1.60 1.59 1.60 1.57 1.54 1.52 1.49 1.49 1.47 1.46 1.47 1.49 1.54 1.57 1.58 1.59 1.56 1.55 1.53 1.54 1.55 1.51 1.47 1.49 1.53 1.54 1.53 1.49 1.43
1.48 1.51 1.53 1.58 1.59 1.59 1.57 1.57 1.59 1.61 1.59 1.59 1.61 1.58 1.59 1.58 1.57 1.56 1.56 1.54 1.52 1.50 1.47 1.45 1.45 1.47 1.52 1.52 1.51 1.49 1.50 1.49 1.48 1.47 1.43 1.44 1.46 1.47 1.54 1.54 1.50 1.46
1.48 1.51 1.51 1.53 1.53 1.56 1.57 1.59 1.60 1.62 1.64 1.64 1.59 1.60 1.62 1.59 1.59 1.61 1.60 1.58 1.56 1.54 1.53 1.51 1.49 1.47 1.49 1.48 1.44 1.43 1.42 1.44 1.40 1.38 1.38 1.40 1.43 1.41 1.46 1.52 1.52 1.45
1.52 1.50 1.51 1.50 1.49 1.52 1.55 1.59 1.61 1.63 1.67 1.65 1.65 1.64 1.66 1.64 1.64 1.65 1.64 1.63 1.59 1.58 1.58 1.58 1.56 1.52 1.51 1.47 1.44 1.41 1.39 1.40 1.39 1.36 1.35 1.35 1.37 1.40 1.46 1.56 1.53 1.49
1.54 1.53 1.51 1.51 1.49 1.52 1.54 1.59 1.63 1.65 1.70 1.68 1.68 1.70 1.66 1.68 1.69 1.70 1.71 1.70 1.65 1.62 1.60 1.59 1.59 1.57 1.54 1.52 1.48 1.44 1.41 1.39 1.39 1.38 1.38 1.39 1.41 1.44 1.48 1.51 1.51 1.49
1.54 1.54 1.52 1.51 1.49 1.51 1.53 1.58 1.61 1.65 1.70 1.70 1.70 1.69 1.70 1.70 1.71 1.74 1.73 1.72 1.67 1.65 1.63 1.60 1.59 1.59 1.56 1.54 1.53 1.51 1.48 1.44 1.43 1.44 1.46 1.50 1.52 1.52 1.52 1.52 1.53 1.52
1.46 1.49 1.49 1.50 1.52 1.51 1.51 1.53 1.57 1.60 1.64 1.69 1.73 1.69 1.70 1.71 1.70 1.72 1.72 1.70 1.69 1.70 1.69 1.67 1.66 1.62 1.59 1.56 1.55 1.56 1.56 1.55 1.54 1.54 1.57 1.59 1.61 1.60 1.58 1.58 1.57 1.59
1.37 1.40 1.45 1.49 1.53 1.55 1.57 1.56 1.54 1.57 1.60 1.64 1.72 1.72 1.70 1.68 1.69 1.68 1.71 1.70 1.70 1.70 1.68 1.67 1.66 1.63 1.60 1.57 1.57 1.58 1.61 1.62 1.62 1.62 1.62 1.63 1.65 1.65 1.64 1.64 1.64 1.64
1.30 1.36 1.41 1.47 1.53 1.58 1.59 1.59 1.57 1.57 1.59 1.65 1.71 1.71 1.70 1.67 1.66 1.67 1.69 1.71 1.70 1.69 1.70 1.70 1.67 1.65 1.62 1.60 1.59 1.61 1.64 1.65 1.65 1.63 1.61 1.62 1.63 1.66 1.66 1.65 1.65 1.66
1.28 1.32 1.36 1.40 1.46 1.51 1.54 1.56 1.56 1.56 1.59 1.64 1.68 1.70 1.72 1.72 1.72 1.71 1.70 1.69 1.70 1.70 1.69 1.69 1.65 1.63 1.64 1.63 1.62 1.64 1.66 1.65 1.65 1.63 1.60 1.56 1.55 1.58 1.63 1.65 1.66 1.67
1.33 1.31 1.32 1.34 1.36 1.38 1.44 1.50 1.52 1.54 1.55 1.57 1.62 1.67 1.70 1.72 1.73 1.74 1.72 1.69 1.69 1.69 1.70 1.69 1.67 1.66 1.66 1.67 1.67 1.66 1.65 1.64 1.62 1.60 1.58 1.55 1.52 1.51 1.55 1.61 1.65 1.68
1.43 1.36 1.36 1.33 1.34 1.37 1.40 1.42 1.46 1.51 1.53 1.56 1.59 1.63 1.66 1.69 1.72 1.70 1.70 1.71 1.70 1.70 1.70 1.71 1.71 1.72 1.71 1.71 1.71 1.72 1.70 1.65 1.60 1.59 1.60 1.59 1.56 1.53 1.52 1.58 1.65 1.70
1.53 1.45 1.39 1.37 1.38 1.37 1.38 1.41 1.45 1.48 1.48 1.51 1.55 1.58 1.62 1.68 1.68 1.69 1.72 1.73 1.74 1.74 1.73 1.75 1.77 1.81 1.82 1.81 1.81 1.80 1.81 1.77 1.74 1.69 1.69 1.69 1.69 1.66 1.65 1.64 1.65 1.68
1.56 1.51 1.45 1.41 1.41 1.40 1.41 1.42 1.43 1.45 1.45 1.45 1.45 1.52 1.57 1.58 1.61 1.66 1.67 1.72 1.73 1.72 1.73 1.78 1.80 1.85 1.86 1.87 1.88 1.89 1.89 1.89 1.85 1.82 1.77 1.76 1.77 1.78 1.77 1.76 1.76 1.74
1.60 1.54 1.48 1.46 1.48 1.48 1.47 1.44 1.43 1.42 1.45 1.47 1.48 1.49 1.48 1.49 1.53 1.54 1.57 1.58 1.60 1.62 1.65 1.72 1.77 1.83 1.86 1.87 1.88 1.90 1.92 1.92 1.91 1.89 1.87 1.85 1.85 1.86 1.85 1.83 1.83 1.81
1.74 1.63 1.52 1.48 1.49 1.53 1.53 1.49 1.47 1.46 1.45 1.46 1.46 1.45 1.44 1.44 1.46 1.46 1.48 1.51 1.53 1.55 1.55 1.59 1.65 1.69 1.72 1.76 1.81 1.84 1.86 1.90 1.91 1.89 1.87 1.85 1.85 1.86 1.85 1.84 1.83 1.83
1.89 1.83 1.76 1.63 1.57 1.57 1.58 1.59 1.57 1.54 1.48 1.51 1.50 1.49 1.49 1.48 1.47 1.45 1.42 1.42 1.45 1.47 1.49 1.49 1.54 1.59 1.63 1.66 1.69 1.72 1.74 1.76 1.76 1.75 1.74 1.74 1.73 1.74 1.75 1.77 1.77 1.73
1.88 1.95 1.97 1.87 1.78 1.64 1.57 1.54 1.54 1.57 1.62 1.63 1.52 1.49 1.46 1.46 1.43 1.43 1.43 1.40 1.38 1.39 1.39 1.42 1.47 1.54 1.59 1.63 1.66 1.68 1.68 1.67 1.66 1.64 1.62 1.59 1.59 1.62 1.64 1.65 1.65 1.65
1.92 1.92 1.97 2.01 1.94 1.81 1.73 1.70 1.69 1.70 1.70 1.79 1.72 1.59 1.51 1.48 1.48 1.45 1.44 1.43 1.40 1.39 1.39 1.36 1.39 1.46 1.51 1.56 1.61 1.65 1.66 1.64 1.65 1.65 1.63 1.63 1.62 1.64 1.65 1.64 1.64 1.65
2.00 1.98 1.95 1.97 1.98 1.96 1.87 1.82 1.83 1.86 1.87 1.86 1.91 1.93 1.80 1.71 1.69 1.63 1.58 1.55 1.53 1.50 1.49 1.42 1.39 1.38 1.38 1.43 1.50 1.55 1.59 1.61 1.63 1.65 1.61 1.59 1.57 1.57 1.62 1.63 1.67 1.68
2.01 1.96 1.94 1.98 2.01 2.02 1.95 1.97 2.03 2.01 1.98 1.97 1.94 2.00 2.03 1.89 1.84 1.80 1.77 1.78 1.78 1.70 1.63 1.59 1.54 1.51 1.50 1.50 1.49 1.49 1.53 1.58 1.62 1.60 1.59 1.63 1.66 1.63 1.58 1.62 1.72 1.79

ECMWFNIL_prec_pwat_141.txt.gz
Precipitable_Water
1.54 1.54 1.51 1.47 1.44 1.39 1.36 1.32 1.33 1.32 1.33 1.34 1.28 1.30 1.32 1.38 1.42 1.45 1.50 1.56 1.58 1.59 1.61 1.60 1.59 1.60 1.63 1.62 1.62 1.61 1.60 1.58 1.55 1.54 1.52 1.54 1.55 1.55 1.54 1.56 1.58 1.56
1.54 1.58 1.59 1.55 1.51 1.47 1.42 1.41 1.39 1.36 1.36 1.37 1.36 1.36 1.38 1.39 1.42 1.45 1.50 1.55 1.59 1.60 1.64 1.64 1.63 1.62 1.64 1.63 1.62 1.57 1.56 1.58 1.54 1.57 1.50 1.49 1.49 1.49 1.48 1.50 1.50 1.55
1.51 1.54 1.57 1.54 1.48 1.46 1.44 1.44 1.43 1.42 1.40 1.42 1.44 1.43 1.42 1.46 1.47 1.49 1.53 1.56 1.59 1.61 1.62 1.62 1.61 1.61 1.62 1.64 1.65 1.60 1.56 1.55 1.51 1.55 1.49 1.44 1.45 1.42 1.44 1.44 1.42 1.43
1.46 1.49 1.51 1.54 1.54 1.50 1.50 1.47 1.45 1.45 1.46 1.45 1.44 1.47 1.47 1.50 1.50 1.50 1.52 1.55 1.56 1.57 1.60 1.60 1.59 1.60 1.60 1.63 1.65 1.63 1.61 1.59 1.59 1.59 1.53 1.52 1.49 1.45 1.44 1.44 1.42 1.39
1.41 1.44 1.48 1.53 1.57 1.56 1.55 1.49 1.46 1.47 1.47 1.49 1.51 1.52 1.52 1.52 1.52 1.51 1.50 1.50 1.51 1.51 1.54 1.55 1.58 1.58 1.60 1.62 1.65 1.62 1.64 1.61 1.64 1.62 1.56 1.52 1.55 1.53 1.52 1.52 1.48 1.44
1.46 1.48 1.50 1.51 1.55 1.55 1.53 1.51 1.52 1.52 1.54 1.53 1.54 1.57 1.55 1.56 1.54 1.53 1.52 1.49 1.49 1.48 1.48 1.50 1.51 1.53 1.55 1.59 1.62 1.62 1.62 1.60 1.61 1.61 1.55 1.52 1.53 1.58 1.55 1.53 1.51 1.47
1.44 1.49 1.50 1.54 1.55 1.56 1.54 1.54 1.56 1.59 1.59 1.61 1.64 1.59 1.60 1.57 1.56 1.56 1.56 1.53 1.51 1.49 1.46 1.46 1.47 1.47 1.52 1.55 1.56 1.55 1.57 1.56 1.56 1.56 1.50 1.48 1.48 1.48 1.52 1.51 1.50 1.49
1.45 1.51 1.53 1.54 1.53 1.55 1.53 1.55 1.57 1.59 1.62 1.64 1.60 1.63 1.63 1.59 1.59 1.61 1.60 1.58 1.54 1.52 1.51 1.50 1.49 1.47 1.48 1.51 1.50 1.49 1.49 1.52 1.49 1.47 1.44 1.41 1.42 1.40 1.43 1.47 1.48 1.48
1.48 1.48 1.50 1.49 1.48 1.51 1.51 1.54 1.57 1.60 1.65 1.62 1.61 1.63 1.66 1.63 1.61 1.61 1.62 1.62 1.59 1.57 1.56 1.54 1.53 1.50 1.50 1.48 1.47 1.46 1.43 1.44 1.45 1.44 1.41 1.36 1.34 1.36 1.40 1.45 1.44 1.47
1.49 1.51 1.49 1.48 1.45 1.48 1.48 1.52 1.58 1.60 1.64 1.64 1.65 1.66 1.64 1.67 1.65 1.63 1.63 1.63 1.61 1.61 1.60 1.58 1.57 1.56 1.56 1.56 1.51 1.47 1.43 1.42 1.43 1.43 1.41 1.38 1.35 1.35 1.39 1.43 1.43 1.43
1.54 1.55 1.52 1.50 1.49 1.50 1.48 1.51 1.55 1.59 1.64 1.63 1.65 1.65 1.68 1.69 1.69 1.69 1.65 1.64 1.61 1.62 1.63 1.63 1.62 1.62 1.60 1.60 1.59 1.57 1.52 1.47 1.45 1.44 1.42 1.40 1.39 1.40 1.43 1.45 1.46 1.44
1.57 1.59 1.58 1.55 1.53 1.53 1.52 1.53 1.55 1.58 1.62 1.65 1.66 1.65 1.69 1.71 1.70 1.71 1.68 1.66 1.67 1.69 1.70 1.70 1.70 1.68 1.65 1.63 1.63 1.62 1.60 1.56 1.53 1.51 1.48 1.47 1.48 1.49 1.52 1.55 1.53 1.51
1.52 1.56 1.61 1.61 1.60 1.59 1.59 1.58 1.56 1.58 1.60 1.61 1.66 1.66 1.67 1.68 1.71 1.70 1.73 1.72 1.73 1.74 1.73 1.74 1.74 1.73 1.71 1.69 1.66 1.64 1.62 1.60 1.58 1.59 1.59 1.60 1.60 1.59 1.61 1.62 1.62 1.59
1.44 1.51 1.56 1.60 1.62 1.62 1.62 1.61 1.59 1.58 1.59 1.62 1.64 1.63 1.65 1.68 1.70 1.70 1.73 1.74 1.74 1.74 1.76 1.78 1.76 1.75 1.74 1.72 1.69 1.66 1.62 1.60 1.60 1.60 1.63 1.65 1.66 1.66 1.65 1.64 1.64 1.64
1.44 1.44 1.48 1.52 1.54 1.56 1.56 1.58 1.60 1.61 1.62 1.62 1.61 1.61 1.65 1.70 1.74 1.74 1.72 1.71 1.73 1.73 1.74 1.76 1.73 1.72 1.73 1.72 1.70 1.68 1.65 1.61 1.62 1.64 1.65 1.65 1.65 1.65 1.65 1.64 1.63 1.64
1.55 1.46 1.40 1.41 1.43 1.45 1.49 1.53 1.56 1.60 1.61 1.61 1.60 1.61 1.64 1.69 1.73 1.75 1.74 1.71 1.70 1.72 1.73 1.73 1.72 1.73 1.71 1.70 1.70 1.70 1.71 1.69 1.69 1.69 1.69 1.67 1.64 1.62 1.62 1.62 1.61 1.62
1.64 1.58 1.50 1.40 1.38 1.40 1.45 1.47 1.50 1.54 1.56 1.57 1.59 1.61 1.63 1.67 1.70 1.72 1.73 1.74 1.73 1.72 1.72 1.73 1.74 1.74 1.73 1.71 1.70 1.71 1.72 1.74 1.72 1.69 1.69 1.68 1.64 1.61 1.57 1.58 1.62 1.65
1.70 1.68 1.61 1.52 1.44 1.39 1.40 1.43 1.46 1.48 1.50 1.52 1.54 1.56 1.61 1.65 1.65 1.69 1.73 1.76 1.77 1.76 1.74 1.74 1.75 1.78 1.77 1.76 1.74 1.73 1.72 1.72 1.74 1.71 1.69 1.71 1.68 1.67 1.68 1.69 1.69 1.71
1.73 1.70 1.67 1.62 1.54 1.47 1.44 1.44 1.43 1.43 1.46 1.47 1.49 1.55 1.59 1.57 1.61 1.66 1.69 1.73 1.74 1.73 1.73 1.77 1.77 1.81 1.80 1.81 1.81 1.80 1.81 1.83 1.83 1.84 1.83 1.78 1.75 1.79 1.82 1.78 1.77 1.79
1.76 1.75 1.72 1.71 1.68 1.61 1.53 1.47 1.44 1.42 1.45 1.49 1.50 1.54 1.53 1.54 1.59 1.62 1.66 1.69 1.71 1.72 1.74 1.77 1.80 1.83 1.82 1.83 1.84 1.85 1.85 1.86 1.85 1.84 1.84 1.82 1.84 1.87 1.88 1.84 1.85 1.82
1.72 1.73 1.74 1.78 1.77 1.71 1.61 1.52 1.49 1.49 1.50 1.52 1.51 1.50 1.49 1.49 1.52 1.55 1.60 1.65 1.68 1.69 1.68 1.67 1.72 1.70 1.70 1.73 1.76 1.79 1.81 1.84 1.85 1.87 1.85 1.84 1.90 1.92 1.93 1.92 1.90 1.89
1.76 1.74 1.71 1.68 1.72 1.75 1.67 1.58 1.53 1.55 1.58 1.63 1.61 1.59 1.59 1.57 1.56 1.55 1.55 1.58 1.63 1.66 1.69 1.66 1.64 1.61 1.60 1.62 1.64 1.65 1.69 1.72 1.74 1.75 1.76 1.76 1.77 1.80 1.84 1.88 1.88 1.86
1.79 1.73 1.71 1.70 1.69 1.69 1.67 1.63 1.57 1.54 1.53 1.61 1.62 1.64 1.59 1.57 1.54 1.54 1.55 1.53 1.56 1.61 1.60 1.60 1.57 1.56 1.55 1.55 1.56 1.58 1.60 1.63 1.66 1.67 1.67 1.67 1.68 1.71 1.73 1.74 1.75 1.75
1.93 1.89 1.76 1.80 1.86 1.80 1.73 1.72 1.72 1.72 1.67 1.65 1.64 1.74 1.72 1.63 1.61 1.59 1.58 1.55 1.50 1.50 1.55 1.52 1.50 1.51 1.51 1.50 1.50 1.52 1.54 1.57 1.61 1.62 1.62 1.63 1.65 1.70 1.72 1.70 1.70 1.69
1.98 2.04 1.97 1.88 1.89 1.91 1.90 1.83 1.84 1.85 1.87 1.87 1.86 1.87 1.94 1.92 1.78 1.62 1.58 1.58 1.58 1.57 1.58 1.55 1.51 1.50 1.49 1.47 1.48 1.50 1.52 1.54 1.54 1.53 1.52 1.55 1.57 1.60 1.66 1.66 1.69 1.68
2.04 2.05 1.99 1.95 2.01 2.03 1.96 1.95 2.00 1.99 1.96 1.95 1.95 1.97 1.95 2.01 1.93 1.75 1.68 1.65 1.66 1.66 1.67 1.68 1.62 1.58 1.58 1.58 1.59 1.61 1.61 1.60 1.57 1.48 1.42 1.45 1.51 1.53 1.53 1.58 1.59 1.62